Time,TemperatureF,DewpointF,PressureIn,WindDirection,WindDirectionDegrees,WindSpeedMPH,WindSpeedGustMPH,Humidity,HourlyPrecipIn,Conditions,Clouds,dailyrainin,SoftwareType,DateUTC
2013-06-21 00:01:00,62.4,53.2,30.34,SW,235,0.0,0.0,72,0.00,,,0.00,meteobridge,2013-06-21 04:01:00,
2013-06-21 00:02:00,62.2,53.4,30.33,SW,235,0.0,0.0,73,0.00,,,0.00,meteobridge,2013-06-21 04:02:00,
2013-06-21 00:03:00,62.2,53.4,30.33,SW,235,0.0,0.0,73,0.00,,,0.00,meteobridge,2013-06-21 04:03:00,
2013-06-21 00:04:00,62.2,53.1,30.33,SW,235,0.0,0.0,72,0.00,,,0.00,meteobridge,2013-06-21 04:04:00,
2013-06-21 00:09:00,62.1,53.2,30.33,SW,235,0.0,0.9,73,0.00,,,0.00,meteobridge,2013-06-21 04:09:00,
2013-06-21 00:14:00,61.9,53.4,30.34,SW,235,0.0,0.0,74,0.00,,,0.00,meteobridge,2013-06-21 04:14:00,
2013-06-21 00:19:00,61.5,53.6,30.33,SW,235,0.0,0.0,75,0.00,,,0.00,meteobridge,2013-06-21 04:19:00,
2013-06-21 00:24:00,61.2,53.6,30.34,SW,235,0.0,0.0,76,0.00,,,0.00,meteobridge,2013-06-21 04:24:00,
2013-06-21 00:30:00,61.0,53.8,30.34,SW,235,0.0,0.0,77,0.00,,,0.00,meteobridge,2013-06-21 04:30:00,
2013-06-21 00:35:00,60.6,53.8,30.34,SW,235,0.0,0.0,78,0.00,,,0.00,meteobridge,2013-06-21 04:35:00,
2013-06-21 00:40:00,60.4,53.6,30.34,SW,235,0.0,0.0,78,0.00,,,0.00,meteobridge,2013-06-21 04:40:00,
2013-06-21 00:45:00,60.3,53.4,30.34,SW,235,0.0,0.0,78,0.00,,,0.00,meteobridge,2013-06-21 04:45:00,
2013-06-21 00:51:00,60.1,53.6,30.34,SW,235,0.0,0.0,79,0.00,,,0.00,meteobridge,2013-06-21 04:51:00,
2013-06-21 00:56:00,59.7,53.6,30.34,SW,235,0.0,0.0,80,0.00,,,0.00,meteobridge,2013-06-21 04:56:00,
2013-06-21 01:01:00,59.5,53.8,30.35,SW,235,0.0,0.0,81,0.00,,,0.00,meteobridge,2013-06-21 05:01:00,
2013-06-21 01:06:00,59.5,54.0,30.35,SW,235,0.0,0.0,82,0.00,,,0.00,meteobridge,2013-06-21 05:06:00,
2013-06-21 01:11:00,59.4,53.8,30.35,SW,235,0.0,0.0,82,0.00,,,0.00,meteobridge,2013-06-21 05:11:00,
2013-06-21 01:17:00,59.4,54.1,30.35,SW,235,0.0,0.0,83,0.00,,,0.00,meteobridge,2013-06-21 05:17:00,
2013-06-21 01:22:00,59.2,54.0,30.35,SW,235,0.0,0.0,83,0.00,,,0.00,meteobridge,2013-06-21 05:22:00,
2013-06-21 01:27:00,59.0,54.1,30.35,SW,235,0.0,0.0,84,0.00,,,0.00,meteobridge,2013-06-21 05:27:00,
2013-06-21 01:32:00,58.8,54.3,30.35,SW,235,0.0,0.0,85,0.00,,,0.00,meteobridge,2013-06-21 05:32:00,
2013-06-21 01:37:00,58.8,54.7,30.35,SW,235,0.0,0.0,86,0.00,,,0.00,meteobridge,2013-06-21 05:37:00,
2013-06-21 01:42:00,58.6,54.5,30.35,SW,235,0.0,0.0,86,0.00,,,0.00,meteobridge,2013-06-21 05:42:00,
2013-06-21 01:48:00,58.6,54.5,30.35,SW,235,0.0,0.0,86,0.00,,,0.00,meteobridge,2013-06-21 05:48:00,
2013-06-21 01:53:00,58.5,54.7,30.35,SW,235,0.0,0.0,87,0.00,,,0.00,meteobridge,2013-06-21 05:53:00,
2013-06-21 01:58:00,58.5,54.7,30.35,SW,235,0.0,0.0,87,0.00,,,0.00,meteobridge,2013-06-21 05:58:00,
2013-06-21 02:03:00,58.5,54.7,30.35,SW,235,0.0,0.9,87,0.00,,,0.00,meteobridge,2013-06-21 06:03:00,
2013-06-21 02:08:00,58.5,54.9,30.34,SW,235,0.0,0.0,88,0.00,,,0.00,meteobridge,2013-06-21 06:08:00,
2013-06-21 02:13:00,58.5,54.9,30.34,SW,235,0.0,0.0,88,0.00,,,0.00,meteobridge,2013-06-21 06:13:00,
2013-06-21 02:19:00,58.3,55.0,30.34,SW,235,0.0,0.0,89,0.00,,,0.00,meteobridge,2013-06-21 06:19:00,
2013-06-21 02:24:00,58.3,55.0,30.34,SW,235,0.0,0.0,89,0.00,,,0.00,meteobridge,2013-06-21 06:24:00,
2013-06-21 02:29:00,58.3,55.0,30.34,SW,235,0.0,0.0,89,0.00,,,0.00,meteobridge,2013-06-21 06:29:00,
2013-06-21 02:34:00,58.3,55.0,30.34,SW,235,0.0,0.0,89,0.00,,,0.00,meteobridge,2013-06-21 06:34:00,
2013-06-21 02:39:00,58.1,54.9,30.34,SW,235,0.0,0.0,89,0.00,,,0.00,meteobridge,2013-06-21 06:39:00,
2013-06-21 02:45:00,57.9,54.7,30.34,SW,235,0.0,0.0,89,0.00,,,0.00,meteobridge,2013-06-21 06:45:00,
2013-06-21 02:50:00,57.9,54.7,30.34,SW,235,0.9,0.9,89,0.00,,,0.00,meteobridge,2013-06-21 06:50:00,
2013-06-21 02:55:00,57.9,55.0,30.34,SW,235,0.0,0.9,90,0.00,,,0.00,meteobridge,2013-06-21 06:55:00,
2013-06-21 03:00:00,57.7,54.9,30.34,SW,235,0.0,0.0,90,0.00,,,0.00,meteobridge,2013-06-21 07:00:00,
2013-06-21 03:05:00,57.7,54.9,30.34,SW,235,0.0,0.0,90,0.00,,,0.00,meteobridge,2013-06-21 07:05:00,
2013-06-21 03:10:00,57.6,54.7,30.34,SW,235,0.0,0.9,90,0.00,,,0.00,meteobridge,2013-06-21 07:10:00,
2013-06-21 03:15:00,57.6,54.7,30.34,SW,235,0.0,0.0,90,0.00,,,0.00,meteobridge,2013-06-21 07:15:00,
2013-06-21 03:20:00,57.6,54.3,30.34,SW,235,0.0,0.0,89,0.00,,,0.00,meteobridge,2013-06-21 07:20:00,
2013-06-21 03:25:00,57.6,54.7,30.34,SW,235,0.0,0.0,90,0.00,,,0.00,meteobridge,2013-06-21 07:25:00,
2013-06-21 03:30:00,57.4,54.5,30.34,SW,235,0.0,2.0,90,0.00,,,0.00,meteobridge,2013-06-21 07:30:00,
2013-06-21 03:35:00,57.4,54.5,30.34,SW,235,0.0,0.0,90,0.00,,,0.00,meteobridge,2013-06-21 07:35:00,
2013-06-21 03:40:00,57.4,54.5,30.34,SW,235,0.0,2.0,90,0.00,,,0.00,meteobridge,2013-06-21 07:40:00,
2013-06-21 03:46:00,57.4,54.5,30.34,SW,235,0.0,0.0,90,0.00,,,0.00,meteobridge,2013-06-21 07:46:00,
2013-06-21 03:51:00,57.2,54.3,30.34,SW,235,0.0,0.0,90,0.00,,,0.00,meteobridge,2013-06-21 07:51:00,
2013-06-21 03:56:00,57.2,54.3,30.34,SW,235,0.0,0.0,90,0.00,,,0.00,meteobridge,2013-06-21 07:56:00,
2013-06-21 04:01:00,57.0,54.1,30.34,SW,235,0.0,0.0,90,0.00,,,0.00,meteobridge,2013-06-21 08:01:00,
2013-06-21 04:06:00,56.8,54.0,30.34,SW,235,0.0,0.0,90,0.00,,,0.00,meteobridge,2013-06-21 08:06:00,
2013-06-21 04:11:00,56.8,54.3,30.34,SW,235,0.0,0.0,91,0.00,,,0.00,meteobridge,2013-06-21 08:11:00,
2013-06-21 04:16:00,56.8,54.3,30.34,SW,235,0.0,0.0,91,0.00,,,0.00,meteobridge,2013-06-21 08:16:00,
2013-06-21 04:22:00,56.7,54.1,30.33,SW,235,0.0,0.0,91,0.00,,,0.00,meteobridge,2013-06-21 08:22:00,
2013-06-21 04:27:00,56.7,54.1,30.34,SW,235,0.0,0.0,91,0.00,,,0.00,meteobridge,2013-06-21 08:27:00,
2013-06-21 04:32:00,56.7,54.3,30.33,SW,235,0.0,0.0,92,0.00,,,0.00,meteobridge,2013-06-21 08:32:00,
2013-06-21 04:37:00,56.7,54.3,30.33,SW,235,0.0,0.0,92,0.00,,,0.00,meteobridge,2013-06-21 08:37:00,
2013-06-21 04:42:00,56.7,54.3,30.33,SW,235,0.0,0.0,92,0.00,,,0.00,meteobridge,2013-06-21 08:42:00,
2013-06-21 04:48:00,56.7,54.3,30.34,SW,235,0.0,2.0,92,0.00,,,0.00,meteobridge,2013-06-21 08:48:00,
2013-06-21 04:53:00,56.7,54.3,30.34,SW,235,0.0,0.0,92,0.00,,,0.00,meteobridge,2013-06-21 08:53:00,
2013-06-21 04:58:00,56.7,54.3,30.33,SW,225,0.0,0.0,92,0.00,,,0.00,meteobridge,2013-06-21 08:58:00,
2013-06-21 05:03:00,56.7,54.3,30.34,SW,225,0.0,0.0,92,0.00,,,0.00,meteobridge,2013-06-21 09:03:00,
2013-06-21 05:08:00,56.7,54.3,30.34,SW,225,0.0,0.0,92,0.00,,,0.00,meteobridge,2013-06-21 09:08:00,
2013-06-21 05:13:00,56.5,54.1,30.34,SW,225,0.0,0.0,92,0.00,,,0.00,meteobridge,2013-06-21 09:13:00,
2013-06-21 05:18:00,56.5,54.1,30.34,SW,225,0.9,0.9,92,0.00,,,0.00,meteobridge,2013-06-21 09:18:00,
2013-06-21 05:23:00,56.3,54.0,30.34,SW,225,0.0,0.0,92,0.00,,,0.00,meteobridge,2013-06-21 09:23:00,
2013-06-21 05:28:00,56.3,54.3,30.34,SW,225,0.0,0.0,93,0.00,,,0.00,meteobridge,2013-06-21 09:28:00,
2013-06-21 05:33:00,56.1,54.1,30.34,SW,225,0.0,0.0,93,0.00,,,0.00,meteobridge,2013-06-21 09:33:00,
2013-06-21 05:38:00,56.1,54.1,30.34,SW,225,0.0,0.0,93,0.00,,,0.00,meteobridge,2013-06-21 09:38:00,
2013-06-21 05:43:00,55.9,54.0,30.34,SW,225,0.0,0.0,93,0.00,,,0.00,meteobridge,2013-06-21 09:43:00,
2013-06-21 05:48:00,55.9,54.0,30.34,SW,225,0.0,0.9,93,0.00,,,0.00,meteobridge,2013-06-21 09:48:00,
2013-06-21 05:53:00,55.9,54.3,30.34,SW,225,0.0,0.0,94,0.00,,,0.00,meteobridge,2013-06-21 09:53:00,
2013-06-21 05:59:00,55.9,54.3,30.34,SW,225,0.0,0.0,94,0.00,,,0.00,meteobridge,2013-06-21 09:59:00,
2013-06-21 06:04:00,55.9,54.3,30.34,SW,225,0.0,0.0,94,0.00,,,0.00,meteobridge,2013-06-21 10:04:00,
2013-06-21 06:09:00,56.1,54.5,30.34,SW,225,0.0,0.0,94,0.00,,,0.00,meteobridge,2013-06-21 10:09:00,
2013-06-21 06:15:00,56.1,54.5,30.35,SW,225,0.0,0.0,94,0.00,,,0.00,meteobridge,2013-06-21 10:15:00,
2013-06-21 06:20:00,56.1,54.5,30.35,SW,225,0.0,0.0,94,0.00,,,0.00,meteobridge,2013-06-21 10:20:00,
2013-06-21 06:25:00,56.3,54.7,30.35,SW,225,0.0,0.0,94,0.00,,,0.00,meteobridge,2013-06-21 10:25:00,
2013-06-21 06:30:00,56.5,54.9,30.35,SW,225,0.0,0.0,94,0.00,,,0.00,meteobridge,2013-06-21 10:30:00,
2013-06-21 06:35:00,56.7,55.0,30.35,SW,225,0.0,0.0,94,0.00,,,0.00,meteobridge,2013-06-21 10:35:00,
2013-06-21 06:40:00,56.8,55.4,30.35,SW,225,0.0,0.0,95,0.00,,,0.00,meteobridge,2013-06-21 10:40:00,
2013-06-21 06:45:00,57.2,55.4,30.36,SW,225,0.0,0.9,94,0.00,,,0.00,meteobridge,2013-06-21 10:45:00,
2013-06-21 06:51:00,57.6,55.8,30.35,SW,225,0.0,0.0,94,0.00,,,0.00,meteobridge,2013-06-21 10:51:00,
2013-06-21 06:56:00,57.7,55.9,30.35,SW,225,0.0,0.0,94,0.00,,,0.00,meteobridge,2013-06-21 10:56:00,
2013-06-21 07:01:00,58.1,56.1,30.35,SW,225,0.0,0.0,93,0.00,,,0.00,meteobridge,2013-06-21 11:01:00,
2013-06-21 07:06:00,58.5,56.1,30.36,SW,225,0.0,0.9,92,0.00,,,0.00,meteobridge,2013-06-21 11:06:00,
2013-06-21 07:11:00,58.8,56.1,30.36,SW,225,0.0,0.9,91,0.00,,,0.00,meteobridge,2013-06-21 11:11:00,
2013-06-21 07:16:00,59.2,56.5,30.36,SW,225,0.0,0.0,91,0.00,,,0.00,meteobridge,2013-06-21 11:16:00,
2013-06-21 07:21:00,59.5,56.7,30.36,SW,225,0.0,0.0,90,0.00,,,0.00,meteobridge,2013-06-21 11:21:00,
2013-06-21 07:27:00,59.7,56.8,30.36,WSW,254,0.0,2.9,90,0.00,,,0.00,meteobridge,2013-06-21 11:27:00,
2013-06-21 07:32:00,60.4,57.2,30.37,West,267,0.9,2.0,89,0.00,,,0.00,meteobridge,2013-06-21 11:32:00,
2013-06-21 07:37:00,61.2,57.2,30.37,West,267,0.0,2.0,87,0.00,,,0.00,meteobridge,2013-06-21 11:37:00,
2013-06-21 07:42:00,61.7,57.4,30.37,West,267,0.0,0.0,86,0.00,,,0.00,meteobridge,2013-06-21 11:42:00,
2013-06-21 07:47:00,62.2,57.4,30.37,West,269,0.9,4.0,84,0.00,,,0.00,meteobridge,2013-06-21 11:47:00,
2013-06-21 07:53:00,62.8,57.6,30.37,WNW,290,2.0,4.0,83,0.00,,,0.00,meteobridge,2013-06-21 11:53:00,
2013-06-21 07:58:00,63.3,57.7,30.37,WNW,290,0.9,0.9,82,0.00,,,0.00,meteobridge,2013-06-21 11:58:00,
2013-06-21 08:03:00,64.0,58.1,30.37,WNW,290,0.0,2.0,81,0.00,,,0.00,meteobridge,2013-06-21 12:03:00,
2013-06-21 08:08:00,64.6,57.9,30.37,WNW,290,0.9,2.0,79,0.00,,,0.00,meteobridge,2013-06-21 12:08:00,
2013-06-21 08:13:00,65.1,58.5,30.37,WNW,303,0.0,2.9,79,0.00,,,0.00,meteobridge,2013-06-21 12:13:00,
2013-06-21 08:18:00,65.8,58.5,30.37,WNW,303,2.0,2.0,77,0.00,,,0.00,meteobridge,2013-06-21 12:18:00,
2013-06-21 08:24:00,66.4,58.6,30.37,SSW,210,0.0,0.0,76,0.00,,,0.00,meteobridge,2013-06-21 12:24:00,
2013-06-21 08:29:00,66.9,58.8,30.37,SSW,211,0.0,0.9,75,0.00,,,0.00,meteobridge,2013-06-21 12:29:00,
2013-06-21 08:34:00,67.5,59.2,30.37,SSW,211,0.0,2.0,75,0.00,,,0.00,meteobridge,2013-06-21 12:34:00,
2013-06-21 08:39:00,67.8,58.1,30.37,NW,322,2.0,2.0,71,0.00,,,0.00,meteobridge,2013-06-21 12:39:00,
2013-06-21 08:44:00,68.4,58.3,30.37,NW,325,0.9,2.9,70,0.00,,,0.00,meteobridge,2013-06-21 12:44:00,
2013-06-21 08:49:00,68.9,57.9,30.37,NW,323,0.0,2.9,68,0.00,,,0.00,meteobridge,2013-06-21 12:49:00,
2013-06-21 08:54:00,69.4,57.6,30.37,NW,309,2.0,4.0,66,0.00,,,0.00,meteobridge,2013-06-21 12:54:00,
2013-06-21 09:00:00,70.0,58.1,30.37,NNW,338,0.9,2.0,66,0.00,,,0.00,meteobridge,2013-06-21 13:00:00,
2013-06-21 09:05:00,70.5,58.6,30.37,NW,317,0.0,0.9,66,0.00,,,0.00,meteobridge,2013-06-21 13:05:00,
2013-06-21 09:10:00,71.1,58.3,30.37,NNW,331,0.9,4.0,64,0.00,,,0.00,meteobridge,2013-06-21 13:10:00,
2013-06-21 09:15:00,71.4,57.7,30.37,NW,321,0.0,2.9,62,0.00,,,0.00,meteobridge,2013-06-21 13:15:00,
2013-06-21 09:20:00,72.1,58.5,30.37,NW,321,0.0,2.0,62,0.00,,,0.00,meteobridge,2013-06-21 13:20:00,
2013-06-21 09:25:00,73.0,58.3,30.36,NW,321,0.9,0.9,60,0.00,,,0.00,meteobridge,2013-06-21 13:25:00,
2013-06-21 09:31:00,73.6,57.4,30.36,WSW,237,0.9,2.9,57,0.00,,,0.00,meteobridge,2013-06-21 13:31:00,
2013-06-21 09:36:00,73.9,58.3,30.36,West,268,0.9,2.0,58,0.00,,,0.00,meteobridge,2013-06-21 13:36:00,
2013-06-21 09:41:00,74.7,58.5,30.36,NNW,338,0.9,2.0,57,0.00,,,0.00,meteobridge,2013-06-21 13:41:00,
2013-06-21 09:46:00,75.0,58.3,30.35,WNW,284,0.9,2.9,56,0.00,,,0.00,meteobridge,2013-06-21 13:46:00,
2013-06-21 09:51:00,74.8,57.0,30.35,SW,227,0.9,2.0,54,0.00,,,0.00,meteobridge,2013-06-21 13:51:00,
2013-06-21 09:56:00,74.7,57.4,30.35,NW,325,2.0,4.9,55,0.00,,,0.00,meteobridge,2013-06-21 13:56:00,
2013-06-21 10:01:00,75.4,58.1,30.35,SSW,195,2.0,2.9,55,0.00,,,0.00,meteobridge,2013-06-21 14:01:00,
2013-06-21 10:06:00,75.7,57.4,30.35,South,190,0.0,0.9,53,0.00,,,0.00,meteobridge,2013-06-21 14:06:00,
2013-06-21 10:11:00,76.6,57.2,30.35,SSW,192,0.9,4.0,51,0.00,,,0.00,meteobridge,2013-06-21 14:11:00,
2013-06-21 10:16:00,77.4,58.8,30.35,SSW,195,0.0,2.0,53,0.00,,,0.00,meteobridge,2013-06-21 14:16:00,
2013-06-21 10:22:00,78.1,59.0,30.35,WNW,302,2.0,2.0,52,0.00,,,0.00,meteobridge,2013-06-21 14:22:00,
2013-06-21 10:27:00,78.4,57.2,30.35,SSW,211,0.0,0.9,48,0.00,,,0.00,meteobridge,2013-06-21 14:27:00,
2013-06-21 10:32:00,78.1,57.4,30.35,NW,308,0.9,2.0,49,0.00,,,0.00,meteobridge,2013-06-21 14:32:00,
2013-06-21 10:37:00,77.7,57.6,30.35,SSW,192,0.0,0.9,50,0.00,,,0.00,meteobridge,2013-06-21 14:37:00,
2013-06-21 10:42:00,78.3,57.0,30.35,NW,317,0.0,4.9,48,0.00,,,0.00,meteobridge,2013-06-21 14:42:00,
2013-06-21 10:48:00,79.3,57.9,30.35,WNW,294,0.9,2.0,48,0.00,,,0.00,meteobridge,2013-06-21 14:48:00,
2013-06-21 10:53:00,80.2,57.6,30.35,NW,319,2.0,2.9,46,0.00,,,0.00,meteobridge,2013-06-21 14:53:00,
2013-06-21 10:58:00,80.6,57.9,30.35,WNW,297,2.0,4.0,46,0.00,,,0.00,meteobridge,2013-06-21 14:58:00,
2013-06-21 11:03:00,81.0,58.3,30.36,WSW,240,0.0,2.0,46,0.00,,,0.00,meteobridge,2013-06-21 15:03:00,
2013-06-21 11:08:00,81.3,57.9,30.36,NNW,336,2.0,4.0,45,0.00,,,0.00,meteobridge,2013-06-21 15:08:00,
2013-06-21 11:13:00,81.7,57.6,30.36,SW,222,2.0,4.9,44,0.00,,,0.00,meteobridge,2013-06-21 15:13:00,
2013-06-21 11:18:00,80.6,57.4,30.36,SW,229,0.9,2.9,45,0.00,,,0.00,meteobridge,2013-06-21 15:18:00,
2013-06-21 11:23:00,80.2,59.4,30.36,WSW,248,2.0,2.9,49,0.00,,,0.00,meteobridge,2013-06-21 15:23:00,
2013-06-21 11:28:00,81.0,57.6,30.36,NW,318,0.9,4.0,45,0.00,,,0.00,meteobridge,2013-06-21 15:28:00,
2013-06-21 11:33:00,82.0,59.2,30.36,North,349,0.0,2.9,46,0.00,,,0.00,meteobridge,2013-06-21 15:33:00,
2013-06-21 11:38:00,82.8,59.2,30.36,NNW,348,2.0,2.9,45,0.00,,,0.00,meteobridge,2013-06-21 15:38:00,
2013-06-21 11:43:00,82.2,61.2,30.36,SSE,156,0.9,4.9,49,0.00,,,0.00,meteobridge,2013-06-21 15:43:00,
2013-06-21 11:48:00,81.3,61.0,30.37,SSW,196,0.9,6.0,50,0.00,,,0.00,meteobridge,2013-06-21 15:48:00,
2013-06-21 11:53:00,80.1,61.3,30.36,South,185,2.0,4.0,53,0.00,,,0.00,meteobridge,2013-06-21 15:53:00,
2013-06-21 11:58:00,79.5,61.9,30.36,ESE,121,0.9,2.0,55,0.00,,,0.00,meteobridge,2013-06-21 15:58:00,
2013-06-21 12:03:00,79.5,61.9,30.36,SSE,150,0.9,6.0,55,0.00,,,0.00,meteobridge,2013-06-21 16:03:00,
2013-06-21 12:09:00,79.5,62.4,30.36,SSE,159,0.9,6.0,56,0.00,,,0.00,meteobridge,2013-06-21 16:09:00,
2013-06-21 12:14:00,79.5,60.4,30.36,South,188,0.9,6.0,52,0.00,,,0.00,meteobridge,2013-06-21 16:14:00,
2013-06-21 12:19:00,79.3,61.2,30.36,ENE,75,0.9,4.0,54,0.00,,,0.00,meteobridge,2013-06-21 16:19:00,
2013-06-21 12:24:00,79.2,60.6,30.35,NNE,17,2.9,6.0,53,0.00,,,0.00,meteobridge,2013-06-21 16:24:00,
2013-06-21 12:29:00,79.0,59.9,30.36,ESE,122,4.0,8.9,52,0.00,,,0.00,meteobridge,2013-06-21 16:29:00,
2013-06-21 12:34:00,78.6,60.1,30.36,East,84,0.0,4.0,53,0.00,,,0.00,meteobridge,2013-06-21 16:34:00,
2013-06-21 12:39:00,79.2,61.2,30.36,SSE,148,4.0,6.0,54,0.00,,,0.00,meteobridge,2013-06-21 16:39:00,
2013-06-21 12:44:00,79.5,60.8,30.36,SSE,165,2.0,6.9,53,0.00,,,0.00,meteobridge,2013-06-21 16:44:00,
2013-06-21 12:49:00,79.9,61.7,30.37,NNE,14,2.0,4.0,54,0.00,,,0.00,meteobridge,2013-06-21 16:49:00,
2013-06-21 12:54:00,80.1,61.3,30.37,SSW,208,6.0,6.0,53,0.00,,,0.00,meteobridge,2013-06-21 16:54:00,
2013-06-21 12:59:00,79.5,59.7,30.37,ESE,108,4.9,6.9,51,0.00,,,0.00,meteobridge,2013-06-21 16:59:00,
2013-06-21 13:04:00,79.2,60.6,30.36,SSE,151,4.0,6.0,53,0.00,,,0.00,meteobridge,2013-06-21 17:04:00,
2013-06-21 13:09:00,79.3,60.3,30.36,SSE,153,4.0,8.1,52,0.00,,,0.00,meteobridge,2013-06-21 17:09:00,
2013-06-21 13:15:00,79.3,61.7,30.36,SSE,163,4.9,4.9,55,0.00,,,0.00,meteobridge,2013-06-21 17:15:00,
2013-06-21 13:20:00,79.0,59.4,30.35,SSE,167,4.0,8.1,51,0.00,,,0.00,meteobridge,2013-06-21 17:20:00,
2013-06-21 13:25:00,78.8,59.2,30.35,SSE,167,2.0,10.1,51,0.00,,,0.00,meteobridge,2013-06-21 17:25:00,
2013-06-21 13:30:00,79.0,59.4,30.35,SE,143,4.0,11.0,51,0.00,,,0.00,meteobridge,2013-06-21 17:30:00,
2013-06-21 13:35:00,79.0,59.4,30.35,SE,132,4.9,4.9,51,0.00,,,0.00,meteobridge,2013-06-21 17:35:00,
2013-06-21 13:40:00,79.5,58.6,30.35,South,181,2.0,8.1,49,0.00,,,0.00,meteobridge,2013-06-21 17:40:00,
2013-06-21 13:45:00,79.3,59.0,30.35,South,186,4.0,8.9,50,0.00,,,0.00,meteobridge,2013-06-21 17:45:00,
2013-06-21 13:46:00,79.3,58.5,30.35,WSW,244,4.0,8.9,49,0.00,,,0.00,meteobridge,2013-06-21 17:46:00,
2013-06-21 13:49:00,79.2,59.0,30.34,NE,37,0.0,4.9,50,0.00,,,0.00,meteobridge,2013-06-21 17:49:00,
2013-06-21 13:54:00,79.3,57.9,30.34,SE,145,0.9,4.9,48,0.00,,,0.00,meteobridge,2013-06-21 17:54:00,
2013-06-21 13:59:00,79.5,58.1,30.34,South,180,2.0,6.9,48,0.00,,,0.00,meteobridge,2013-06-21 17:59:00,
2013-06-21 14:04:00,79.9,59.0,30.34,SE,146,2.0,8.1,49,0.00,,,0.00,meteobridge,2013-06-21 18:04:00,
2013-06-21 14:09:00,80.6,58.5,30.34,SSE,158,2.0,4.9,47,0.00,,,0.00,meteobridge,2013-06-21 18:09:00,
2013-06-21 14:14:00,81.0,58.3,30.34,SSW,206,2.0,10.1,46,0.00,,,0.00,meteobridge,2013-06-21 18:14:00,
2013-06-21 14:19:00,80.4,59.0,30.34,SSE,155,2.0,8.9,48,0.00,,,0.00,meteobridge,2013-06-21 18:19:00,
2013-06-21 14:23:00,80.1,59.7,30.34,SW,227,4.0,4.9,50,0.00,,,0.00,meteobridge,2013-06-21 18:23:00,
2013-06-21 14:24:00,80.1,59.2,30.34,SSW,198,0.9,6.0,49,0.00,,,0.00,meteobridge,2013-06-21 18:24:00,
2013-06-21 14:29:00,80.4,57.7,30.33,SE,130,4.9,8.1,46,0.00,,,0.00,meteobridge,2013-06-21 18:29:00,
2013-06-21 14:34:00,80.1,58.1,30.33,SSW,192,4.9,8.1,47,0.00,,,0.00,meteobridge,2013-06-21 18:34:00,
2013-06-21 14:39:00,79.5,57.6,30.33,SSE,163,0.9,6.0,47,0.00,,,0.00,meteobridge,2013-06-21 18:39:00,
2013-06-21 14:44:00,79.9,57.2,30.34,SW,235,2.9,8.9,46,0.00,,,0.00,meteobridge,2013-06-21 18:44:00,
2013-06-21 14:45:00,79.5,57.6,30.34,SE,142,6.9,8.9,47,0.00,,,0.00,meteobridge,2013-06-21 18:45:00,
2013-06-21 14:46:00,79.5,57.6,30.34,WSW,245,0.9,8.9,47,0.00,,,0.00,meteobridge,2013-06-21 18:46:00,
2013-06-21 14:51:00,79.3,59.0,30.34,SSE,160,4.9,6.9,50,0.00,,,0.00,meteobridge,2013-06-21 18:51:00,
2013-06-21 14:56:00,79.0,57.0,30.34,SSW,199,2.0,6.9,47,0.00,,,0.00,meteobridge,2013-06-21 18:56:00,
2013-06-21 15:01:00,78.4,57.2,30.34,SW,224,6.9,8.9,48,0.00,,,0.00,meteobridge,2013-06-21 19:01:00,
2013-06-21 15:06:00,78.4,57.7,30.34,SSE,151,4.9,8.1,49,0.00,,,0.00,meteobridge,2013-06-21 19:06:00,
2013-06-21 15:11:00,78.4,58.8,30.34,SSW,192,4.0,6.9,51,0.00,,,0.00,meteobridge,2013-06-21 19:11:00,
2013-06-21 15:16:00,79.0,58.8,30.34,SSE,157,6.0,8.1,50,0.00,,,0.00,meteobridge,2013-06-21 19:16:00,
2013-06-21 15:21:00,79.2,57.2,30.34,SW,215,4.0,6.9,47,0.00,,,0.00,meteobridge,2013-06-21 19:21:00,
2013-06-21 15:22:00,79.2,57.2,30.34,SSW,201,0.0,6.9,47,0.00,,,0.00,meteobridge,2013-06-21 19:22:00,
2013-06-21 15:27:00,79.5,57.6,30.34,South,180,4.0,4.9,47,0.00,,,0.00,meteobridge,2013-06-21 19:27:00,
2013-06-21 15:32:00,79.0,55.8,30.34,SW,225,2.9,6.0,45,0.00,,,0.00,meteobridge,2013-06-21 19:32:00,
2013-06-21 15:37:00,79.0,59.4,30.33,SSE,160,11.0,11.0,51,0.00,,,0.00,meteobridge,2013-06-21 19:37:00,
2013-06-21 15:42:00,78.8,56.8,30.33,SW,225,0.0,12.1,47,0.00,,,0.00,meteobridge,2013-06-21 19:42:00,
2013-06-21 15:48:00,78.4,55.9,30.33,SSE,153,4.0,8.1,46,0.00,,,0.00,meteobridge,2013-06-21 19:48:00,
2013-06-21 15:53:00,78.3,56.3,30.33,SE,142,2.0,10.1,47,0.00,,,0.00,meteobridge,2013-06-21 19:53:00,
2013-06-21 15:58:00,78.4,57.2,30.33,WSW,251,2.9,8.1,48,0.00,,,0.00,meteobridge,2013-06-21 19:58:00,
2013-06-21 16:03:00,78.4,55.9,30.33,South,184,2.0,6.9,46,0.00,,,0.00,meteobridge,2013-06-21 20:03:00,
2013-06-21 16:04:00,78.4,57.2,30.33,SSW,192,4.0,8.1,48,0.00,,,0.00,meteobridge,2013-06-21 20:04:00,
2013-06-21 16:08:00,78.4,56.5,30.33,SSE,163,0.9,6.9,47,0.00,,,0.00,meteobridge,2013-06-21 20:08:00,
2013-06-21 16:11:00,78.3,55.8,30.33,SSE,159,4.0,11.0,46,0.00,,,0.00,meteobridge,2013-06-21 20:11:00,
2013-06-21 16:13:00,78.3,55.8,30.33,South,169,4.9,6.9,46,0.00,,,0.00,meteobridge,2013-06-21 20:13:00,
2013-06-21 16:18:00,77.5,56.3,30.32,SSW,192,0.9,6.9,48,0.00,,,0.00,meteobridge,2013-06-21 20:18:00,
2013-06-21 16:23:00,77.9,57.2,30.32,South,169,2.0,10.1,49,0.00,,,0.00,meteobridge,2013-06-21 20:23:00,
2013-06-21 16:28:00,78.1,56.8,30.32,SE,138,8.9,11.0,48,0.00,,,0.00,meteobridge,2013-06-21 20:28:00,
2013-06-21 16:33:00,77.5,56.8,30.32,WSW,240,4.0,6.0,49,0.00,,,0.00,meteobridge,2013-06-21 20:33:00,
2013-06-21 16:39:00,77.4,57.2,30.32,SSE,163,0.9,4.9,50,0.00,,,0.00,meteobridge,2013-06-21 20:39:00,
2013-06-21 16:44:00,77.7,55.9,30.32,SSW,195,2.0,12.1,47,0.00,,,0.00,meteobridge,2013-06-21 20:44:00,
2013-06-21 16:49:00,77.5,56.3,30.32,South,172,6.0,8.1,48,0.00,,,0.00,meteobridge,2013-06-21 20:49:00,
2013-06-21 16:54:00,77.4,56.7,30.32,West,274,6.0,6.9,49,0.00,,,0.00,meteobridge,2013-06-21 20:54:00,
2013-06-21 16:59:00,77.4,56.7,30.32,SSW,194,0.0,4.0,49,0.00,,,0.00,meteobridge,2013-06-21 20:59:00,
2013-06-21 17:04:00,77.5,56.8,30.31,SSE,150,2.0,11.0,49,0.00,,,0.00,meteobridge,2013-06-21 21:04:00,
2013-06-21 17:09:00,77.2,54.9,30.31,SSW,195,2.9,11.0,46,0.00,,,0.00,meteobridge,2013-06-21 21:09:00,
2013-06-21 17:14:00,76.6,56.1,30.31,ESE,119,6.0,11.0,49,0.00,,,0.00,meteobridge,2013-06-21 21:14:00,
2013-06-21 17:19:00,76.5,57.0,30.32,West,275,6.0,6.0,51,0.00,,,0.00,meteobridge,2013-06-21 21:19:00,
2013-06-21 17:24:00,76.5,57.0,30.32,South,179,0.9,6.9,51,0.00,,,0.00,meteobridge,2013-06-21 21:24:00,
2013-06-21 17:29:00,76.3,56.3,30.31,SSW,204,4.0,8.1,50,0.00,,,0.00,meteobridge,2013-06-21 21:29:00,
2013-06-21 17:34:00,76.1,57.2,30.31,SSE,150,2.0,4.9,52,0.00,,,0.00,meteobridge,2013-06-21 21:34:00,
2013-06-21 17:39:00,75.9,58.1,30.31,SSE,154,0.9,4.0,54,0.00,,,0.00,meteobridge,2013-06-21 21:39:00,
2013-06-21 17:44:00,75.9,57.0,30.31,SSE,148,8.9,8.9,52,0.00,,,0.00,meteobridge,2013-06-21 21:44:00,
2013-06-21 17:49:00,75.7,56.8,30.31,SSE,160,4.9,8.1,52,0.00,,,0.00,meteobridge,2013-06-21 21:49:00,
2013-06-21 17:54:00,75.7,57.4,30.30,SW,216,0.9,4.0,53,0.00,,,0.00,meteobridge,2013-06-21 21:54:00,
2013-06-21 18:00:00,75.6,57.7,30.31,West,271,0.9,2.9,54,0.00,,,0.00,meteobridge,2013-06-21 22:00:00,
2013-06-21 18:05:00,75.4,56.5,30.31,SE,139,0.9,4.0,52,0.00,,,0.00,meteobridge,2013-06-21 22:05:00,
2013-06-21 18:10:00,75.4,56.5,30.31,SSW,194,2.0,11.0,52,0.00,,,0.00,meteobridge,2013-06-21 22:10:00,
2013-06-21 18:15:00,75.0,56.1,30.31,SSE,162,4.0,8.1,52,0.00,,,0.00,meteobridge,2013-06-21 22:15:00,
2013-06-21 18:20:00,74.8,56.5,30.31,South,173,4.0,6.0,53,0.00,,,0.00,meteobridge,2013-06-21 22:20:00,
2013-06-21 18:25:00,74.8,57.6,30.31,SE,132,0.0,2.0,55,0.00,,,0.00,meteobridge,2013-06-21 22:25:00,
2013-06-21 18:30:00,74.7,57.9,30.31,South,188,0.9,4.0,56,0.00,,,0.00,meteobridge,2013-06-21 22:30:00,
2013-06-21 18:35:00,74.7,57.9,30.31,SSE,164,4.0,4.9,56,0.00,,,0.00,meteobridge,2013-06-21 22:35:00,
2013-06-21 18:40:00,74.7,58.5,30.32,SSE,155,0.9,4.9,57,0.00,,,0.00,meteobridge,2013-06-21 22:40:00,
2013-06-21 18:45:00,74.7,58.8,30.32,WSW,242,2.0,4.9,58,0.00,,,0.00,meteobridge,2013-06-21 22:45:00,
2013-06-21 18:50:00,74.5,58.8,30.32,SW,227,2.0,4.0,58,0.00,,,0.00,meteobridge,2013-06-21 22:50:00,
2013-06-21 18:55:00,74.5,58.8,30.32,WSW,244,4.0,6.0,58,0.00,,,0.00,meteobridge,2013-06-21 22:55:00,
2013-06-21 19:00:00,74.3,58.1,30.31,WSW,246,2.0,6.0,57,0.00,,,0.00,meteobridge,2013-06-21 23:00:00,
2013-06-21 19:05:00,74.1,55.9,30.31,SSW,202,6.0,6.9,53,0.00,,,0.00,meteobridge,2013-06-21 23:05:00,
2013-06-21 19:10:00,74.1,55.9,30.31,SW,223,2.9,6.9,53,0.00,,,0.00,meteobridge,2013-06-21 23:10:00,
2013-06-21 19:15:00,73.9,55.8,30.31,East,98,4.9,8.1,53,0.00,,,0.00,meteobridge,2013-06-21 23:15:00,
2013-06-21 19:21:00,73.8,55.0,30.31,SSW,213,2.9,4.0,52,0.00,,,0.00,meteobridge,2013-06-21 23:21:00,
2013-06-21 19:26:00,73.4,55.2,30.31,SSW,210,2.0,6.9,53,0.00,,,0.00,meteobridge,2013-06-21 23:26:00,
2013-06-21 19:31:00,73.2,55.6,30.31,South,172,4.0,10.1,54,0.00,,,0.00,meteobridge,2013-06-21 23:31:00,
2013-06-21 19:36:00,72.9,55.8,30.31,WSW,255,0.0,6.0,55,0.00,,,0.00,meteobridge,2013-06-21 23:36:00,
2013-06-21 19:41:00,72.7,56.1,30.32,South,188,2.0,6.9,56,0.00,,,0.00,meteobridge,2013-06-21 23:41:00,
2013-06-21 19:46:00,72.5,55.9,30.32,SSE,155,0.9,4.0,56,0.00,,,0.00,meteobridge,2013-06-21 23:46:00,
2013-06-21 19:51:00,72.1,56.1,30.31,SSE,168,0.0,6.9,57,0.00,,,0.00,meteobridge,2013-06-21 23:51:00,
2013-06-21 19:56:00,72.0,55.9,30.31,South,184,0.0,4.9,57,0.00,,,0.00,meteobridge,2013-06-21 23:56:00,
2013-06-21 20:01:00,71.8,56.7,30.31,SE,138,0.0,0.9,59,0.00,,,0.00,meteobridge,2013-06-22 00:01:00,
2013-06-21 20:06:00,71.4,56.3,30.31,SSW,207,0.0,2.9,59,0.00,,,0.00,meteobridge,2013-06-22 00:06:00,
2013-06-21 20:11:00,71.2,56.1,30.31,SSW,207,0.9,0.9,59,0.00,,,0.00,meteobridge,2013-06-22 00:11:00,
2013-06-21 20:16:00,71.1,56.5,30.31,SW,227,0.0,0.9,60,0.00,,,0.00,meteobridge,2013-06-22 00:16:00,
2013-06-21 20:21:00,70.7,56.7,30.31,SW,227,0.9,0.9,61,0.00,,,0.00,meteobridge,2013-06-22 00:21:00,
2013-06-21 20:26:00,70.3,56.7,30.31,SW,223,0.0,2.0,62,0.00,,,0.00,meteobridge,2013-06-22 00:26:00,
2013-06-21 20:32:00,70.2,56.5,30.31,SW,223,0.9,2.9,62,0.00,,,0.00,meteobridge,2013-06-22 00:32:00,
2013-06-21 20:37:00,69.8,57.0,30.31,SSE,150,0.9,0.9,64,0.00,,,0.00,meteobridge,2013-06-22 00:37:00,
2013-06-21 20:42:00,69.4,56.7,30.31,SSE,150,0.0,2.0,64,0.00,,,0.00,meteobridge,2013-06-22 00:42:00,
2013-06-21 20:47:00,69.3,56.5,30.31,SSE,150,0.0,0.0,64,0.00,,,0.00,meteobridge,2013-06-22 00:47:00,
2013-06-21 20:52:00,69.1,56.8,30.31,SSE,150,0.9,0.9,65,0.00,,,0.00,meteobridge,2013-06-22 00:52:00,
2013-06-21 20:57:00,68.7,56.5,30.31,SSE,150,0.0,0.0,65,0.00,,,0.00,meteobridge,2013-06-22 00:57:00,
2013-06-21 21:03:00,68.5,56.7,30.31,SSE,150,0.0,0.9,66,0.00,,,0.00,meteobridge,2013-06-22 01:03:00,
2013-06-21 21:08:00,68.4,56.5,30.31,SSE,150,0.0,0.9,66,0.00,,,0.00,meteobridge,2013-06-22 01:08:00,
2013-06-21 21:13:00,68.0,56.7,30.31,SSE,150,0.0,0.0,67,0.00,,,0.00,meteobridge,2013-06-22 01:13:00,
2013-06-21 21:18:00,67.8,56.5,30.31,SSE,150,0.0,0.0,67,0.00,,,0.00,meteobridge,2013-06-22 01:18:00,
2013-06-21 21:24:00,67.6,56.3,30.31,SSE,153,0.0,2.0,67,0.00,,,0.00,meteobridge,2013-06-22 01:24:00,
2013-06-21 21:29:00,67.5,56.5,30.31,SSE,153,0.0,4.0,68,0.00,,,0.00,meteobridge,2013-06-22 01:29:00,
2013-06-21 21:34:00,67.5,56.5,30.32,SSE,153,0.0,0.9,68,0.00,,,0.00,meteobridge,2013-06-22 01:34:00,
2013-06-21 21:39:00,67.3,56.3,30.32,SSE,153,0.0,0.9,68,0.00,,,0.00,meteobridge,2013-06-22 01:39:00,
2013-06-21 21:44:00,67.1,56.1,30.32,SSE,153,0.0,0.0,68,0.00,,,0.00,meteobridge,2013-06-22 01:44:00,
2013-06-21 21:49:00,66.7,56.3,30.32,SSE,153,0.0,0.0,69,0.00,,,0.00,meteobridge,2013-06-22 01:49:00,
2013-06-21 21:55:00,66.6,56.5,30.32,SSE,153,0.0,0.0,70,0.00,,,0.00,meteobridge,2013-06-22 01:55:00,
2013-06-21 22:00:00,66.4,56.3,30.32,SSE,153,0.0,0.0,70,0.00,,,0.00,meteobridge,2013-06-22 02:00:00,
2013-06-21 22:05:00,66.2,56.5,30.32,SSE,153,0.0,2.0,71,0.00,,,0.00,meteobridge,2013-06-22 02:05:00,
2013-06-21 22:10:00,66.0,56.3,30.32,SSE,153,0.0,0.9,71,0.00,,,0.00,meteobridge,2013-06-22 02:10:00,
2013-06-21 22:15:00,65.8,56.5,30.33,SSE,153,0.0,0.9,72,0.00,,,0.00,meteobridge,2013-06-22 02:15:00,
2013-06-21 22:20:00,65.7,56.3,30.33,SSE,153,0.0,0.0,72,0.00,,,0.00,meteobridge,2013-06-22 02:20:00,
2013-06-21 22:26:00,65.5,56.7,30.33,SSE,153,0.0,0.0,73,0.00,,,0.00,meteobridge,2013-06-22 02:26:00,
2013-06-21 22:31:00,65.1,56.3,30.33,SSE,153,0.0,0.0,73,0.00,,,0.00,meteobridge,2013-06-22 02:31:00,
2013-06-21 22:36:00,64.9,56.5,30.33,SSE,153,0.0,0.9,74,0.00,,,0.00,meteobridge,2013-06-22 02:36:00,
2013-06-21 22:41:00,64.8,56.3,30.33,SSE,153,0.0,2.0,74,0.00,,,0.00,meteobridge,2013-06-22 02:41:00,
2013-06-21 22:46:00,64.8,56.3,30.33,SSE,153,0.0,0.0,74,0.00,,,0.00,meteobridge,2013-06-22 02:46:00,
2013-06-21 22:51:00,64.6,56.1,30.32,SSE,153,0.0,0.0,74,0.00,,,0.00,meteobridge,2013-06-22 02:51:00,
2013-06-21 22:56:00,64.6,56.5,30.32,SSE,153,0.0,0.0,75,0.00,,,0.00,meteobridge,2013-06-22 02:56:00,
2013-06-21 23:01:00,64.2,56.1,30.32,SSE,153,0.9,2.0,75,0.00,,,0.00,meteobridge,2013-06-22 03:01:00,
2013-06-21 23:06:00,64.2,56.5,30.32,SSE,153,0.0,0.9,76,0.00,,,0.00,meteobridge,2013-06-22 03:06:00,
2013-06-21 23:11:00,64.2,56.1,30.32,SSW,212,0.0,2.0,75,0.00,,,0.00,meteobridge,2013-06-22 03:11:00,
2013-06-21 23:16:00,64.2,56.1,30.32,SW,221,0.0,2.9,75,0.00,,,0.00,meteobridge,2013-06-22 03:16:00,
2013-06-21 23:21:00,64.4,56.3,30.32,SW,236,0.9,0.9,75,0.00,,,0.00,meteobridge,2013-06-22 03:21:00,
2013-06-21 23:26:00,64.4,56.3,30.32,SW,236,2.0,2.0,75,0.00,,,0.00,meteobridge,2013-06-22 03:26:00,
2013-06-21 23:32:00,64.2,56.5,30.32,SW,235,0.0,2.0,76,0.00,,,0.00,meteobridge,2013-06-22 03:32:00,
2013-06-21 23:37:00,64.2,56.5,30.32,SW,235,0.0,2.0,76,0.00,,,0.00,meteobridge,2013-06-22 03:37:00,
2013-06-21 23:42:00,64.2,56.8,30.32,WSW,246,0.0,0.9,77,0.00,,,0.00,meteobridge,2013-06-22 03:42:00,
2013-06-21 23:47:00,64.2,56.8,30.32,WSW,242,0.0,6.9,77,0.00,,,0.00,meteobridge,2013-06-22 03:47:00,
2013-06-21 23:52:00,64.4,57.4,30.32,West,269,0.0,2.9,78,0.00,,,0.00,meteobridge,2013-06-22 03:52:00,
2013-06-21 23:57:00,64.2,57.6,30.32,SSW,207,0.0,4.0,79,0.00,,,0.00,meteobridge,2013-06-22 03:57:00,